Weather History for KBNA - April, 2013

Change the Weather History Date:

Tuesday, April 23, 2013

  Actual Average Record
Temperature  
Mean Temperature 63 °F 61 °F  
Max Temperature 76 °F 73 °F 90 °F (1980)
Min Temperature 49 °F 50 °F 31 °F (1986)
Degree Days  
Heating Degree Days 2    
Month to date heating degree days 165  
Since 1 July heating degree days 3413  
Cooling Degree Days 0    
Month to date cooling degree days 47  
Year to date cooling degree days 52  
Growing Degree Days 12 (Base 50)    
Moisture  
Dew Point 48 °F    
Average Humidity 65    
Maximum Humidity 86    
Minimum Humidity 44    
Precipitation  
Precipitation 0.00 in 0.15 in 2.95 in (1878)
Month to date precipitation 3.38 2.91  
Year to date precipitation 17.42 14.71  
Snow  
Snow 0.00 in 0.00 in 0.00 in (2002)
Month to date snowfall 0.0 0.1  
Since 1 July snowfall 1.3 6.4  
Snow Depth 0.00 in    
Sea Level Pressure  
Sea Level Pressure 30.06 in    
Wind  
Wind Speed 11 mph (South)    
Max Wind Speed 22 mph    
Max Gust Speed 29 mph    
Visibility 10 miles    
Events      
T = Trace of Precipitation, MM = Missing Value Source: NWS Daily Summary

Daily Weather History Graph

Daily Weather History Graph

Search for Another Location

Airport or City:

Trip Planner

Search our weather history database for the weather conditions in past years. The results will help you decide how hot, cold, wet, or windy it might be!

Date:

Astronomy

Apr. 23, 2013 Rise Set
Actual Time 6:02 AM CDT 7:27 PM CDT
Civil Twilight 5:36 AM CDT 7:54 PM CDT
Nautical Twilight 5:03 AM CDT 8:26 PM CDT
Astronomical Twilight 4:30 AM CDT 9:00 PM CDT
Moon 5:25 PM CDT (4/23) 4:26 AM CDT (4/23)
Length of Visible Light 14h 18m
Length of Day
13h 24m
Waxing Gibbous, 94% of the Moon is Illuminated
Apr 23
Waxing Gibbous
Apr 25
Full
May 2
Last Quarter
May 9
New
May 17
First Quarter

Hourly Weather History & Observations

Time (CDT) Temp. Dew Point Humidity Pressure Visibility Wind Dir Wind Speed Gust Speed Precip Events Conditions
12:53 AM 54.0 °F 44.1 °F 69% 30.13 in 10.0 mi SSE 4.6 mph - N/A   Clear
1:53 AM 52.0 °F 45.0 °F 77% 30.12 in 10.0 mi Calm Calm - N/A   Clear
2:53 AM 50.0 °F 45.0 °F 83% 30.10 in 10.0 mi Calm Calm - N/A   Partly Cloudy
3:53 AM 48.9 °F 44.1 °F 83% 30.08 in 10.0 mi South 5.8 mph - N/A   Scattered Clouds
4:53 AM 55.4 °F 46.4 °F 72% 30.10 in 10.0 mi South 8.1 mph - N/A   Scattered Clouds
5:53 AM 55.0 °F 46.0 °F 72% 30.11 in 10.0 mi South 8.1 mph - N/A   Scattered Clouds
6:53 AM 55.0 °F 46.0 °F 72% 30.12 in 10.0 mi South 5.8 mph - N/A   Mostly Cloudy
7:53 AM 57.9 °F 44.1 °F 60% 30.15 in 10.0 mi South 11.5 mph - N/A   Scattered Clouds
8:53 AM 60.1 °F 42.1 °F 51% 30.14 in 10.0 mi South 13.8 mph 21.9 mph N/A   Mostly Cloudy
9:53 AM 64.9 °F 44.1 °F 47% 30.13 in 10.0 mi South 18.4 mph 26.5 mph N/A   Mostly Cloudy
10:53 AM 69.1 °F 46.0 °F 44% 30.13 in 10.0 mi SSW 17.3 mph 28.8 mph N/A   Mostly Cloudy
11:53 AM 70.0 °F 46.9 °F 44% 30.11 in 10.0 mi SSW 17.3 mph 24.2 mph N/A   Overcast
12:53 PM 71.1 °F 48.0 °F 44% 30.10 in 10.0 mi South 16.1 mph 23.0 mph N/A   Overcast
1:53 PM 73.9 °F 50.0 °F 43% 30.07 in 10.0 mi South 16.1 mph 20.7 mph N/A   Mostly Cloudy
2:53 PM 73.0 °F 50.0 °F 44% 30.03 in 10.0 mi South 16.1 mph 20.7 mph N/A   Mostly Cloudy
3:53 PM 73.9 °F 50.0 °F 43% 30.00 in 10.0 mi South 17.3 mph 24.2 mph N/A   Mostly Cloudy
4:53 PM 73.0 °F 50.0 °F 44% 29.99 in 10.0 mi SSW 15.0 mph - N/A   Mostly Cloudy
5:53 PM 73.0 °F 50.0 °F 44% 29.98 in 10.0 mi South 12.7 mph 23.0 mph N/A   Mostly Cloudy
6:53 PM 71.1 °F 50.0 °F 47% 29.97 in 10.0 mi SSW 10.4 mph 17.3 mph N/A   Mostly Cloudy
7:53 PM 68.0 °F 51.1 °F 55% 29.97 in 10.0 mi South 11.5 mph - N/A   Mostly Cloudy
8:53 PM 66.9 °F 51.1 °F 57% 29.99 in 10.0 mi South 8.1 mph - N/A   Mostly Cloudy
9:53 PM 64.0 °F 51.1 °F 63% 29.99 in 10.0 mi South 5.8 mph - N/A   Mostly Cloudy
10:53 PM 66.9 °F 52.0 °F 59% 29.99 in 10.0 mi South 11.5 mph - N/A   Mostly Cloudy
11:53 PM 66.9 °F 52.0 °F 59% 29.97 in 10.0 mi South 12.7 mph - N/A   Overcast